SCP
0 0 -0 -0 -0 -0 -0 -0 -0 0 0 0 0 0 0 0 0 0 0 0 0 0 0 0 0 0 0 0 0 0 0 0
0 -0 -0 -0 -0 -0 -0 0 0 0 0 0 0 0 0 0 0 0 0 0 0 0 0 0 0 0 0 0 0 0 0 0
-0 -0 0 0 0 0 0 0 0 0 0 0 0 0 0 0 0 0 0 0 0 0 0 0 0 0 0 0 0 0 0 0
0 0 0 0 0 0 0 0 0 0 0 -0 -0 -0 -0 0 0 0 0 0 0 0 0 0 0 0 0 0 0 0 0 0
0 0 0 0 0 0 0 0 0 0 0 0 -0 -0 -0 -0 -0 -0 -0 -0 0 0 0 0 0 0 0 0 0 0 0 0
0 -0 0 0 0 0 0 0 -0 0 -0 0 0 0 -0 -0 -0 -0 -0 -0 -0 -0 0 0 0 0 0 0 0 0 0 0
0 0 0 -0 -0 -0 -0 -0 -0 -0 -0 0 0 0 0 0 0 0 -0 -0 -0 -0 -0 -0 0 0 0 0 0 0 0 0
0 0 0 0 0 -0 -0 0 -0 -0 -0 -0 -0 0 0 0 0 0 0 0 0 -0 -0 0 0 0 0 0 0 0 0 0
0 0 0 0 0 0 0 0 0 0 0 0 -0 -0 0 0 0 0 0 0 0 0 0 0 0 0 0 0 0 0 0 0
0 0 0 0 0 0 0 0 0 0 0 0 0 0 0 0 0 0 0 0 0 0 0 0 0 0 0 0 0 0 0 0
0 0 0 0 0 0 0 0 0 0 0 0 0 0 0 0 0 0 0 0 0 0 0 0 0 0 0 0 0 0 0 0
0 0 0 0 0 0 0 0 0 0 0 0 0 0 0 0 0 0 0 0 0 0 0 0 0 0 0 0 0 0 0 0
0 0 0 0 0 0 0 0 0 0 0 0 0 0 0 0 0 0 0 0 0 0 0 0 0 0 0 0 0 0 0 0
0 0 0 0 0 0 0 0 0 0 0 0 0 0 0 0 0 0 0 0 0 0 0 0 0 0 0 0 0 0 0 0
0 0 0 0 0 0 0 0 0 0 0 0 0 0 0 0 0 0 0 0 0 0 0 0 0 0 0 0 0 0 0 0
0 0 0 0 0 0 0 0 0 0 0 0 0 0 0 0 0 0 0 0 0 0 0 0 0 0 0 0 0 0 0 0
0 0 0 0 0 0 0 0 0 0 0 0 0 0 0 0 0 0 0 0 0 0 0 0 0 -0 -0 0 0 0 0 0
0 0 0 0 0 0 0 0 0 0 0 0 0 0 0 0 0 0 0 0 0 0 0 0 -0 -0 -0 -0 0 0 0 0
0 0 0 0 0 0 0 0 0 0 0 0 0 0 0 0 0 0 0 0 0 0 0 0 -0 -0 -0 -0 0 0 0 0
0 0 0 0 0 0 0 0 -0 -0 0 0 0 0 0 0 0 0 0 0 0 0 0 0 0 0 0 -0 0 0 0 0
Wind_Speed_500mb
10 12 18 20 20 23 28 32 34 35 35 38 40 40 39 36 37 40 42 36 30 29 28 29 35 36 39 47 53 65 76 83
10 11 15 20 24 28 34 36 41 42 41 39 40 43 42 42 42 43 46 48 46 40 35 31 31 30 38 44 48 55 63 69
4 10 17 20 25 33 38 43 42 44 48 53 50 46 45 46 48 48 49 50 54 52 48 43 37 36 34 37 43 52 59 63
4 11 14 19 23 26 33 40 47 51 51 53 57 60 61 60 58 57 56 55 56 59 57 56 50 45 46 48 46 46 51 58
12 14 14 20 28 31 32 37 39 42 48 52 60 66 71 74 75 73 72 71 68 64 66 65 59 57 54 52 54 63 60 55
9 13 17 19 23 32 41 45 42 42 49 58 64 68 72 75 79 83 84 84 83 83 78 74 74 67 62 60 62 61 62 70
12 14 17 20 24 30 39 43 49 53 63 70 70 69 71 73 76 80 86 91 93 93 93 94 88 81 78 76 73 71 72 71
28 27 25 26 34 41 45 47 50 58 71 73 74 79 83 86 91 96 98 101 102 103 106 108 107 102 96 92 92 91 86 81
27 31 38 41 45 51 53 57 62 72 74 78 80 86 92 96 102 107 108 113 116 117 116 117 117 115 113 108 105 105 104 98
28 35 42 46 55 60 64 69 75 77 81 82 85 93 98 102 108 111 101 104 109 117 124 125 128 122 117 97 98 110 115 112
42 47 50 53 60 65 73 76 83 87 91 97 99 99 102 104 108 111 108 112 107 110 105 109 130 133 127 97 88 99 110 117
44 47 48 54 63 70 73 82 90 96 102 104 102 102 102 105 105 105 103 100 104 104 109 104 105 122 110 102 90 91 94 95
51 50 54 60 66 73 83 92 98 101 102 103 104 102 102 100 98 89 85 85 88 90 96 92 89 88 88 84 84 84 89 99
51 55 57 60 68 81 90 95 98 100 102 102 101 99 95 89 85 85 81 80 84 80 84 88 82 83 81 82 78 77 83 92
51 56 58 63 74 82 84 86 91 96 99 98 99 95 82 78 78 77 79 79 80 84 91 98 98 92 88 85 81 75 69 74
50 54 59 69 77 75 76 79 85 90 93 94 90 85 83 78 76 71 73 72 81 88 92 93 93 88 86 85 86 84 80 78
48 54 64 70 72 68 69 73 80 87 91 87 85 83 81 83 86 74 67 69 71 77 82 92 92 91 88 85 83 79 76 86
50 59 65 67 66 60 64 69 74 82 84 80 79 79 81 82 86 90 88 73 72 71 72 74 79 78 78 76 73 69 67 80
55 59 59 62 57 56 61 67 72 78 73 73 76 77 78 79 83 85 89 94 97 82 77 72 69 66 65 64 60 65 64 72
59 55 55 56 50 52 57 63 71 74 69 68 72 72 71 72 74 78 81 85 90 94 84 70 67 59 64 63 54 57 57 62
Wind_Direction_500mb
6 4 360 7 15 15 23 27 26 24 23 20 18 16 15 8 3 359 355 355 352 350 338 311 293 278 271 267 263 259 259 259
329 355 5 8 7 11 8 9 8 9 8 8 4 3 358 356 355 352 349 348 346 343 341 341 334 310 288 276 269 264 264 263
350 18 7 0 2 359 358 355 358 357 356 355 353 349 345 346 345 342 337 337 336 336 337 334 323 318 316 301 285 274 269 266
323 8 347 349 344 352 350 350 345 345 346 344 341 337 335 333 332 330 328 327 326 324 325 325 326 324 315 302 296 288 281 275
286 296 317 323 323 328 335 337 329 328 329 332 331 329 326 325 323 321 319 318 315 315 315 314 313 313 315 313 308 294 283 278
272 288 299 304 298 304 319 325 320 316 319 324 322 319 317 316 316 315 315 313 312 311 307 304 304 304 303 302 303 302 299 288
264 279 284 297 298 296 303 302 310 312 316 319 318 315 314 313 310 309 308 308 308 306 304 303 300 297 297 298 297 296 294 293
281 281 281 296 299 302 306 303 296 301 311 316 317 315 313 311 308 305 303 301 299 297 297 296 295 295 294 292 292 292 291 290
289 295 293 288 296 308 307 308 310 311 314 315 314 311 309 306 303 302 302 300 297 294 292 290 288 288 288 287 286 285 285 284
292 288 286 293 300 304 308 310 312 314 314 311 308 305 303 301 301 300 298 295 293 292 292 289 286 285 285 285 280 279 278 279
288 291 293 298 302 306 310 313 314 315 313 310 308 306 304 303 301 299 295 292 289 287 284 284 285 284 283 282 279 276 276 275
280 289 293 299 304 309 311 314 316 315 312 311 312 311 310 309 307 305 302 298 294 290 288 284 282 285 285 283 280 275 274 269
289 297 305 308 311 312 314 316 315 313 312 313 315 316 316 314 312 310 309 304 301 297 295 291 288 286 286 282 277 275 272 270
293 301 307 311 314 313 315 315 313 313 315 317 319 321 321 315 314 313 311 304 298 294 293 294 293 291 290 287 282 275 269 265
299 305 309 313 313 314 316 316 315 316 319 321 325 321 320 319 314 306 304 300 296 295 294 297 296 294 294 294 296 283 273 273
302 306 310 312 313 317 319 318 318 318 323 325 323 327 324 321 317 310 303 298 299 296 295 295 294 293 294 291 287 284 287 283
299 304 311 313 316 321 318 319 321 324 325 325 330 329 327 323 319 319 303 301 298 296 295 295 292 292 290 287 284 279 274 275
302 309 313 314 318 320 319 324 326 326 325 331 332 331 328 326 321 312 320 312 308 305 303 300 299 299 295 291 286 280 272 264
304 311 311 312 318 320 325 325 330 326 331 334 335 332 329 327 321 317 313 313 319 333 321 310 308 304 300 297 293 282 270 268
304 310 309 310 318 322 326 330 331 329 338 339 336 332 330 329 329 324 318 313 313 319 327 332 329 320 318 316 304 279 279 277
Wind_Speed_850mb
10 12 18 20 20 23 28 32 34 35 35 38 40 40 39 36 37 40 42 36 30 29 28 29 35 36 39 47 53 65 76 83
10 11 15 20 24 28 34 36 41 42 41 39 40 43 42 42 42 43 46 48 46 40 35 31 31 30 38 44 48 55 63 69
4 10 17 20 25 33 38 43 42 44 48 53 50 46 45 46 48 48 49 50 54 52 48 43 37 36 34 37 43 52 59 63
4 11 14 19 23 26 33 40 47 51 51 53 57 60 61 60 58 57 56 55 56 59 57 56 50 45 46 48 46 46 51 58
12 14 14 20 28 31 32 37 39 42 48 52 60 66 71 74 75 73 72 71 68 64 66 65 59 57 54 52 54 63 60 55
9 13 17 19 23 32 41 45 42 42 49 58 64 68 72 75 79 83 84 84 83 83 78 74 74 67 62 60 62 61 62 70
12 14 17 20 24 30 39 43 49 53 63 70 70 69 71 73 76 80 86 91 93 93 93 94 88 81 78 76 73 71 72 71
28 27 25 26 34 41 45 47 50 58 71 73 74 79 83 86 91 96 98 101 102 103 106 108 107 102 96 92 92 91 86 81
27 31 38 41 45 51 53 57 62 72 74 78 80 86 92 96 102 107 108 113 116 117 116 117 117 115 113 108 105 105 104 98
28 35 42 46 55 60 64 69 75 77 81 82 85 93 98 102 108 111 101 104 109 117 124 125 128 122 117 97 98 110 115 112
42 47 50 53 60 65 73 76 83 87 91 97 99 99 102 104 108 111 108 112 107 110 105 109 130 133 127 97 88 99 110 117
44 47 48 54 63 70 73 82 90 96 102 104 102 102 102 105 105 105 103 100 104 104 109 104 105 122 110 102 90 91 94 95
51 50 54 60 66 73 83 92 98 101 102 103 104 102 102 100 98 89 85 85 88 90 96 92 89 88 88 84 84 84 89 99
51 55 57 60 68 81 90 95 98 100 102 102 101 99 95 89 85 85 81 80 84 80 84 88 82 83 81 82 78 77 83 92
51 56 58 63 74 82 84 86 91 96 99 98 99 95 82 78 78 77 79 79 80 84 91 98 98 92 88 85 81 75 69 74
50 54 59 69 77 75 76 79 85 90 93 94 90 85 83 78 76 71 73 72 81 88 92 93 93 88 86 85 86 84 80 78
48 54 64 70 72 68 69 73 80 87 91 87 85 83 81 83 86 74 67 69 71 77 82 92 92 91 88 85 83 79 76 86
50 59 65 67 66 60 64 69 74 82 84 80 79 79 81 82 86 90 88 73 72 71 72 74 79 78 78 76 73 69 67 80
55 59 59 62 57 56 61 67 72 78 73 73 76 77 78 79 83 85 89 94 97 82 77 72 69 66 65 64 60 65 64 72
59 55 55 56 50 52 57 63 71 74 69 68 72 72 71 72 74 78 81 85 90 94 84 70 67 59 64 63 54 57 57 62
Wind_Direction_850mb
6 4 360 7 15 15 23 27 26 24 23 20 18 16 15 8 3 359 355 355 352 350 338 311 293 278 271 267 263 259 259 259
329 355 5 8 7 11 8 9 8 9 8 8 4 3 358 356 355 352 349 348 346 343 341 341 334 310 288 276 269 264 264 263
350 18 7 0 2 359 358 355 358 357 356 355 353 349 345 346 345 342 337 337 336 336 337 334 323 318 316 301 285 274 269 266
323 8 347 349 344 352 350 350 345 345 346 344 341 337 335 333 332 330 328 327 326 324 325 325 326 324 315 302 296 288 281 275
286 296 317 323 323 328 335 337 329 328 329 332 331 329 326 325 323 321 319 318 315 315 315 314 313 313 315 313 308 294 283 278
272 288 299 304 298 304 319 325 320 316 319 324 322 319 317 316 316 315 315 313 312 311 307 304 304 304 303 302 303 302 299 288
264 279 284 297 298 296 303 302 310 312 316 319 318 315 314 313 310 309 308 308 308 306 304 303 300 297 297 298 297 296 294 293
281 281 281 296 299 302 306 303 296 301 311 316 317 315 313 311 308 305 303 301 299 297 297 296 295 295 294 292 292 292 291 290
289 295 293 288 296 308 307 308 310 311 314 315 314 311 309 306 303 302 302 300 297 294 292 290 288 288 288 287 286 285 285 284
292 288 286 293 300 304 308 310 312 314 314 311 308 305 303 301 301 300 298 295 293 292 292 289 286 285 285 285 280 279 278 279
288 291 293 298 302 306 310 313 314 315 313 310 308 306 304 303 301 299 295 292 289 287 284 284 285 284 283 282 279 276 276 275
280 289 293 299 304 309 311 314 316 315 312 311 312 311 310 309 307 305 302 298 294 290 288 284 282 285 285 283 280 275 274 269
289 297 305 308 311 312 314 316 315 313 312 313 315 316 316 314 312 310 309 304 301 297 295 291 288 286 286 282 277 275 272 270
293 301 307 311 314 313 315 315 313 313 315 317 319 321 321 315 314 313 311 304 298 294 293 294 293 291 290 287 282 275 269 265
299 305 309 313 313 314 316 316 315 316 319 321 325 321 320 319 314 306 304 300 296 295 294 297 296 294 294 294 296 283 273 273
302 306 310 312 313 317 319 318 318 318 323 325 323 327 324 321 317 310 303 298 299 296 295 295 294 293 294 291 287 284 287 283
299 304 311 313 316 321 318 319 321 324 325 325 330 329 327 323 319 319 303 301 298 296 295 295 292 292 290 287 284 279 274 275
302 309 313 314 318 320 319 324 326 326 325 331 332 331 328 326 321 312 320 312 308 305 303 300 299 299 295 291 286 280 272 264
304 311 311 312 318 320 325 325 330 326 331 334 335 332 329 327 321 317 313 313 319 333 321 310 308 304 300 297 293 282 270 268
304 310 309 310 318 322 326 330 331 329 338 339 336 332 330 329 329 324 318 313 313 319 327 332 329 320 318 316 304 279 279 277